Weather Roundup
Issued by NWS

Home | Current Version | Previous Version | Graphics & Text | Print | Product List | Glossary Off
Versions: 1 2 3 4 5 6 7 8 9 10 11 12 13 14 15 16 17 18 19 20 21 22 23 24 25 26 27 28 29 30 31 32 33 34 35 36 37 38 39 40 41 42 43 44 45 46 47 48 49 50

000
NZUS93 KARX 311010
HRRWXR

CURRENT HOURLY OBSERVATIONS ACROSS
MUCH OF THE UPPER MISSISSIPPI VALLEY
NATIONAL WEATHER SERVICE LA CROSSE WI
500 AM CDT WED AUG 31 2016


...SOUTHEAST MINNESOTA...


CITY           SKY/WX    TMP DP  RH WIND       PRES   REMARKS
ROCHESTER      CLEAR     56  55  97 N6        30.19S
ROCHESTER/MAYO FAIR      58  58  97 CALM      30.19S
WINONA         PTCLDY    55  55 100 NW3       30.17S FOG
AUSTIN         CLEAR     55  52  88 N3        30.18S
ALBERT LEA     CLEAR     55  54  94 CALM      30.19S
DODGE CENTER   PTCLDY    55  52  88 N5        30.19S
PRESTON        CLEAR     57  53  87 N5        30.18F
OWATONNA       FOG       52  52 100 CALM      30.20S VSB 1/2
FARIBAULT      CLEAR     52  52 100 CALM      30.20S
$$

...ELSEWHERE IN MINNESOTA...


CITY           SKY/WX    TMP DP  RH WIND       PRES   REMARKS
MINNEAPOLIS    CLEAR     60  56  86 NW3       30.20R
INTNL FALLS    CLEAR     43  41  93 NW5       30.21S
DULUTH         CLEAR     53  50  89 N7        30.20R
RED WING       CLEAR     54  54 100 CALM      30.18S
REDWOOD FALLS  CLEAR     59  55  87 CALM      30.20F
MANKATO        NOT AVBL
WORTHINGTON    CLEAR     55  53  93 CALM      30.22F
FAIRMONT       CLEAR     55  54  96 NW5       30.21S
$$

...SOUTHWEST WISCONSIN...


CITY           SKY/WX    TMP DP  RH WIND       PRES   REMARKS
LA CROSSE      CLEAR     61  59  93 N5        30.15F
PRAIRIE DU CHI CLOUDY    60  58  92 CALM      30.13R
BOSCOBEL       FOG       57  56  96 CALM      30.13S VSB 3/4
LONE ROCK      CLOUDY    62  57  83 CALM      30.12S
PLATTEVILLE    PTCLDY    63  62  99 N6        30.11S
FORT MC COY    PTCLDY    49  49 100 CALM      30.16F FOG
CAMP DOUGLAS   CLEAR     49  48  96 W3        30.15R
MAUSTON-NEW LI SUNNY     55  54  95 W3        30.14S
VIROQUA        FAIR      57  55  94 CALM      30.16S
WIS DELLS      CLOUDY    60  57  88 NW3       30.13S
$$

...ELSEWHERE IN WISCONSIN...


CITY           SKY/WX    TMP DP  RH WIND       PRES   REMARKS
MILWAUKEE      CLOUDY    66  55  67 N12       30.06S
MADISON        CLOUDY    62  59  90 N5        30.09S
GREEN BAY      PTCLDY    56  56 100 NW5       30.11S
EAU CLAIRE     FOG       52  52 100 CALM      30.17R VSB 3/4
BLACK RVR FLS  FAIR      47  47 100 CALM      30.15F
MEDFORD          N/A     48  48 100 CALM      30.16S FOG
WAUSAU         CLEAR     53  51  93 N5        30.14S
WIS RAPIDS     CLEAR     54  52  93 N5        30.16S
MARSHFIELD     CLEAR     52  49  89 NW5       30.15F
RICE LAKE      CLEAR     51  49  95 CALM      30.21S
$$

...NORTHEAST IOWA...


CITY           SKY/WX    TMP DP  RH WIND       PRES   REMARKS
WATERLOO       MOCLDY    58  56  93 NW3       30.14S
DUBUQUE        PTCLDY    63  61  93 N8        30.11S
DECORAH        CLOUDY    59  59 100 N3        30.15S
MASON CITY     CLOUDY    54  52  93 NW5       30.19F
CHARLES CITY   CLOUDY    57  57 100 N3        30.17F
OELWEIN        PTCLDY    59  59 100 N6        30.15S
$$

...ELSEWHERE IN IOWA...


CITY           SKY/WX    TMP DP  RH WIND       PRES   REMARKS
DES MOINES     CLOUDY    69  61  75 NE7       30.14S
IOWA CITY      CLOUDY    69  63  81 N9        30.11R
FORT DODGE     CLOUDY    57  54  88 CALM      30.19S
MARSHALLTOWN   CLOUDY    60  59  96 N6        30.15R
CEDAR RAPIDS   MOCLDY    63  63 100 NW7       30.11S
$$

...NORTHERN ILLINOIS...


CITY           SKY/WX    TMP DP  RH WIND       PRES   REMARKS
CHICAGO-OHARE  CLOUDY    70  67  90 N10       30.04R
CHICAGO-MIDWAY MOCLDY    73  67  81 N12       30.02F
MOLINE         CLOUDY    71  65  81 N3        30.07R
ROCKFORD       CLOUDY    68  65  90 N9        30.07S
PEORIA         MOCLDY    70  70 100 N3        30.04F
$$

NOTE: "FAIR" INDICATES FEW OR NO CLOUDS BELOW 12,000 FEET WITH NO
SIGNIFICANT WEATHER AND/OR OBSTRUCTIONS TO VISIBILITY. WIND
SPEEDS ARE IN MILES-PER-HOUR.




USA.gov is the U.S. government's official web portal to all federal, state and local government web resources and services.